Content
SEND FEEDBACK

Daily
Averages
Monthly
Summary
Australia

YANCO, NEW SOUTH WALES


Home > Oceania > Australia > New South Wales
Elevation: 459 feet     Latitude: 34 36S     Longitude: 146 24E

WEATHER
 
SELECT A DAY
Number of Records: 171,546;   Date Range: 2/21/03 - 11/26/14
 
SHARE

PRINT THIS DATA

[ ← Previous Day ]
WEATHER ALMANAC - FEBRUARY 13, 2013
[ Next Day → ]
[ °C ]   °F
Weather ElementAverageHighLow
Temperature75.9 °F89.6 °F (5:00 pm)62.6 °F (7:00 am)
Dewpoint46.8 °F53.6 °F (12:00 am)42.8 °F (7:00 pm)
Humidity34.5 %59 % (7:00 am)12 % (5:00 pm)
Barometer30.08 in30.18 in (9:00 am)29.98 in (6:00 pm)
Wind Speed11.7 mph20.7 mph (12:00 am)
Wind Gust17.3 mph (5:00 pm)
Weather ElementAverage
Visibility10.8 mi
Wind DirectionENE (78.4 °)

Weather ElementTotal
Precipitation---
Cooling Degree Days11.1 (Base 65)
Growing Degree Days26.1 (Base 50)
Averaged from 38 records on February 13, 2013
WEATHER CONDITIONS BREAKOUT
WIND DIRECTION BREAKOUT
WEATHER BY HOUR - FEBRUARY 13, 2013
[ °C ]   °F
Local TimeTemperatureDewpointHumidityBarometerVisibilityWind DirectionWind SpeedGust SpeedPrecipitationEventsConditions
12:00 AM71.6 °F53.6 °F53 %30.04 in6.2 miENE (70°)20.7 mph
1:00 AM69.8 °F53.6 °F56 %30.06 in6.2 miEast (80°)15.0 mph
2:00 AM68.0 °F51.0 °F45 %30.06 inEast (80°)15.0 mph
2:00 AM68.0 °F51.8 °F56 %30.06 in6.2 miEast (80°)15.0 mph
3:00 AM66.2 °F50.0 °F56 %30.06 in6.2 miENE (60°)12.7 mph
3:00 AM67.0 °F50.0 °F43 %30.06 inENE (60°)12.7 mph
4:00 AM66.2 °F48.2 °F52 %30.09 in6.2 miENE (60°)17.3 mph
5:00 AM65.0 °F48.0 °F43 %30.09 inENE (60°)10.4 mph
5:00 AM64.4 °F48.2 °F56 %30.09 in6.2 miENE (60°)10.4 mph
6:00 AM64.4 °F48.2 °F56 %30.12 inENE (60°)9.2 mphClear
6:00 AM64.0 °F48.0 °F45 %30.10 in16.0 miENE (60°)9.2 mphPartly Cloudy
7:00 AM62.6 °F48.2 °F59 %30.15 inEast (90°)9.2 mphClear
8:00 AM66.0 °F47.0 °F39 %30.15 inENE (70°)10.4 mph
8:00 AM66.2 °F46.4 °F49 %30.15 inENE (70°)10.4 mphClear
9:00 AM69.8 °F46.4 °F43 %30.18 inNE (50°)13.8 mphClear
9:00 AM70.0 °F46.0 °F32 %30.17 in16.0 miENE (60°)13.8 mphHaze
10:00 AM73.4 °F46.4 °F38 %30.18 inENE (70°)13.8 mphClear
11:00 AM76.0 °F46.0 °F24 %30.16 inNE (50°)12.7 mph
11:00 AM77.0 °F46.4 °F34 %30.18 inNE (50°)12.7 mphClear
12:00 PM80.6 °F44.6 °F28 %30.15 inENE (60°)12.7 mphClear
12:00 PM80.0 °F45.0 °F18 %30.14 in16.0 miENE (60°)12.7 mphHaze
1:00 PM82.4 °F44.6 °F26 %30.12 in6.2 miEast (80°)15.0 mph
2:00 PM85.0 °F44.0 °F14 %30.08 inEast (80°)9.2 mph
2:00 PM84.2 °F44.6 °F25 %30.09 in6.2 miEast (80°)9.2 mph
3:00 PM86.0 °F44.6 °F23 %30.06 inNNE (30°)8.1 mphClear
3:00 PM87.0 °F44.0 °F14 %30.06 in19.0 miNNE (30°)8.1 mphPartly Cloudy
4:00 PM87.8 °F44.6 °F22 %30.04 inNE (50°)9.2 mphClear
5:00 PM89.0 °F44.0 °F12 %29.99 inNorth (350°)5.8 mph
5:00 PM89.6 °F44.6 °F21 %30.01 inNorth (350°)5.8 mph17.3 mphClear
6:00 PM87.8 °F44.6 °F22 %30.01 inENE (70°)6.9 mphClear
6:00 PM89.0 °F45.0 °F13 %29.98 in19.0 miENE (70°)6.9 mphPartly Cloudy
7:00 PM86.0 °F42.8 °F22 %30.01 inNE (50°)10.4 mphClear
8:00 PM82.4 °F44.6 °F26 %30.04 inNE (50°)10.4 mphClear
9:00 PM80.0 °F45.0 °F19 %30.03 in16.0 miENE (60°)10.4 mphHaze
9:00 PM80.6 °F44.6 °F28 %30.04 inENE (60°)10.4 mphClear
10:00 PM78.8 °F46.4 °F32 %30.06 inENE (70°)12.7 mphClear
11:00 PM77.0 °F49.0 °F27 %30.07 inENE (70°)18.4 mph
11:00 PM77.0 °F50.0 °F39 %30.09 inENE (70°)18.4 mphClear
Hourly data recorded from YNAR, located miles away from Yanco, New South Wales







STORIES FROM OUR PARTNERS